����������;��������(kWh)
2018-10-08 00:00;75,25
2018-10-08 00:15;77
2018-10-08 00:30;75,7
2018-10-08 00:45;77,3
2018-10-08 01:00;75,9
2018-10-08 01:15;75,5
2018-10-08 01:30;80,9
2018-10-08 01:45;80,95
2018-10-08 02:00;80,9
2018-10-08 02:15;83,8
2018-10-08 02:30;81,9
2018-10-08 02:45;83,1
2018-10-08 03:00;83,85
2018-10-08 03:15;81,75
2018-10-08 03:30;80,4
2018-10-08 03:45;77,95
2018-10-08 04:00;76,15
2018-10-08 04:15;76,1
2018-10-08 04:30;79,2
2018-10-08 04:45;77,7
2018-10-08 05:00;77,9
2018-10-08 05:15;79,65
2018-10-08 05:30;79,8
2018-10-08 05:45;78,85
2018-10-08 06:00;77,55
2018-10-08 06:15;74,55
2018-10-08 06:30;75,75
2018-10-08 06:45;77
2018-10-08 07:00;78,9
2018-10-08 07:15;77,7
2018-10-08 07:30;129,75
2018-10-08 07:45;102,65
2018-10-08 08:00;91,7
2018-10-08 08:15;98,85
2018-10-08 08:30;104,65
2018-10-08 08:45;107,7
2018-10-08 09:00;116,2
2018-10-08 09:15;118,4
2018-10-08 09:30;120,65
2018-10-08 09:45;128,55
2018-10-08 10:00;132,25
2018-10-08 10:15;144,15
2018-10-08 10:30;148,65
2018-10-08 10:45;145,95
2018-10-08 11:00;144,45
2018-10-08 11:15;149,65
2018-10-08 11:30;148
2018-10-08 11:45;155,55
2018-10-08 12:00;160,7
2018-10-08 12:15;165,05
2018-10-08 12:30;164,95
2018-10-08 12:45;162,15
2018-10-08 13:00;163,35
2018-10-08 13:15;165,95
2018-10-08 13:30;165,4
2018-10-08 13:45;162,3
2018-10-08 14:00;163,55
2018-10-08 14:15;156,95
2018-10-08 14:30;159,7
2018-10-08 14:45;159,05
2018-10-08 15:00;160,15
2018-10-08 15:15;152,5
2018-10-08 15:30;145,3
2018-10-08 15:45;146,95
2018-10-08 16:00;143,55
2018-10-08 16:15;134,2
2018-10-08 16:30;131,1
2018-10-08 16:45;130,35
2018-10-08 17:00;129,4
2018-10-08 17:15;127,5
2018-10-08 17:30;122,15
2018-10-08 17:45;126,15
2018-10-08 18:00;125,75
2018-10-08 18:15;113,55
2018-10-08 18:30;117,2
2018-10-08 18:45;118,3
2018-10-08 19:00;115,35
2018-10-08 19:15;114,35
2018-10-08 19:30;111,75
2018-10-08 19:45;118,15
2018-10-08 20:00;115,7
2018-10-08 20:15;107,15
2018-10-08 20:30;105,15
2018-10-08 20:45;105,25
2018-10-08 21:00;100,15
2018-10-08 21:15;98,4
2018-10-08 21:30;95,3
2018-10-08 21:45;90,75
2018-10-08 22:00;89,9
2018-10-08 22:15;91,05
2018-10-08 22:30;89,45
2018-10-08 22:45;90,9
2018-10-08 23:00;89,65
2018-10-08 23:15;88,4
2018-10-08 23:30;88,85
2018-10-08 23:45;89
2018-10-09 00:00;87,75
2018-10-09 00:15;85,6
2018-10-09 00:30;81,15
2018-10-09 00:45;78,7
2018-10-09 01:00;80
2018-10-09 01:15;78,9
2018-10-09 01:30;78
2018-10-09 01:45;76,3
2018-10-09 02:00;77,5
2018-10-09 02:15;77,4
2018-10-09 02:30;76,8
2018-10-09 02:45;77
2018-10-09 03:00;76,2
2018-10-09 03:15;75,7
2018-10-09 03:30;77,45
2018-10-09 03:45;78,2
2018-10-09 04:00;77,65
2018-10-09 04:15;80,45
2018-10-09 04:30;78,55
2018-10-09 04:45;77,75
2018-10-09 05:00;80,85
2018-10-09 05:15;78,9
2018-10-09 05:30;80,8
2018-10-09 05:45;81,1
2018-10-09 06:00;80,05
2018-10-09 06:15;78,45
2018-10-09 06:30;77,15
2018-10-09 06:45;75,25
2018-10-09 07:00;76,35
2018-10-09 07:15;77,45
2018-10-09 07:30;122,9
2018-10-09 07:45;92,65
2018-10-09 08:00;91,15
2018-10-09 08:15;102,95
2018-10-09 08:30;95,15
2018-10-09 08:45;106,75
2018-10-09 09:00;113,85
2018-10-09 09:15;115,25
2018-10-09 09:30;114,35
2018-10-09 09:45;130,3
2018-10-09 10:00;130,3
2018-10-09 10:15;139,35
2018-10-09 10:30;142,4
2018-10-09 10:45;146,95
2018-10-09 11:00;153,55
2018-10-09 11:15;155,5
2018-10-09 11:30;156,25
2018-10-09 11:45;149,25
2018-10-09 12:00;151,8
2018-10-09 12:15;156
2018-10-09 12:30;157,45
2018-10-09 12:45;157,2
2018-10-09 13:00;165,6
2018-10-09 13:15;166,7
2018-10-09 13:30;168,75
2018-10-09 13:45;167,8
2018-10-09 14:00;170,25
2018-10-09 14:15;164,65
2018-10-09 14:30;157,55
2018-10-09 14:45;157,3
2018-10-09 15:00;151,75
2018-10-09 15:15;150,55
2018-10-09 15:30;147,3
2018-10-09 15:45;145,85
2018-10-09 16:00;146,85
2018-10-09 16:15;137,55
2018-10-09 16:30;142,75
2018-10-09 16:45;136
2018-10-09 17:00;134,85
2018-10-09 17:15;126,8
2018-10-09 17:30;126,95
2018-10-09 17:45;126,5
2018-10-09 18:00;123,15
2018-10-09 18:15;117,75
2018-10-09 18:30;114,45
2018-10-09 18:45;111,3
2018-10-09 19:00;114,85
2018-10-09 19:15;113,05
2018-10-09 19:30;113,05
2018-10-09 19:45;113,2
2018-10-09 20:00;111,75
2018-10-09 20:15;105,7
2018-10-09 20:30;101,4
2018-10-09 20:45;100,5
2018-10-09 21:00;100,7
2018-10-09 21:15;96,45
2018-10-09 21:30;95,8
2018-10-09 21:45;92,9
2018-10-09 22:00;89
2018-10-09 22:15;86,1
2018-10-09 22:30;82,95
2018-10-09 22:45;84,8
2018-10-09 23:00;83,1
2018-10-09 23:15;83,7
2018-10-09 23:30;80,55
2018-10-09 23:45;79,25
2018-10-10 00:00;78,55
2018-10-10 00:15;83,1
2018-10-10 00:30;85
2018-10-10 00:45;84,8
2018-10-10 01:00;84,45
2018-10-10 01:15;83,15
2018-10-10 01:30;83,35
2018-10-10 01:45;85,3
2018-10-10 02:00;84,45
2018-10-10 02:15;82,8
2018-10-10 02:30;77,3
2018-10-10 02:45;77,1
2018-10-10 03:00;75,9
2018-10-10 03:15;76,3
2018-10-10 03:30;77,1
2018-10-10 03:45;78,05
2018-10-10 04:00;77,95
2018-10-10 04:15;79,65
2018-10-10 04:30;79,8
2018-10-10 04:45;76,85
2018-10-10 05:00;80,3
2018-10-10 05:15;79,3
2018-10-10 05:30;80,1
2018-10-10 05:45;79,55
2018-10-10 06:00;78,9
2018-10-10 06:15;77,2
2018-10-10 06:30;79,3
2018-10-10 06:45;77,75
2018-10-10 07:00;81,1
2018-10-10 07:15;79,5
2018-10-10 07:30;122,3
2018-10-10 07:45;93,8
2018-10-10 08:00;92,2
2018-10-10 08:15;101,05
2018-10-10 08:30;98,35
2018-10-10 08:45;115,3
2018-10-10 09:00;113,45
2018-10-10 09:15;122,5
2018-10-10 09:30;126,9
2018-10-10 09:45;132,25
2018-10-10 10:00;132,2
2018-10-10 10:15;136,5
2018-10-10 10:30;138,25
2018-10-10 10:45;148,35
2018-10-10 11:00;147,95
2018-10-10 11:15;161,4
2018-10-10 11:30;161,25
2018-10-10 11:45;157,8
2018-10-10 12:00;163,1
2018-10-10 12:15;161,45
2018-10-10 12:30;161,15
2018-10-10 12:45;162,5
2018-10-10 13:00;161,1
2018-10-10 13:15;163,35
2018-10-10 13:30;159,25
2018-10-10 13:45;155,6
2018-10-10 14:00;152,7
2018-10-10 14:15;162,6
2018-10-10 14:30;155,25
2018-10-10 14:45;156,8
2018-10-10 15:00;147,2
2018-10-10 15:15;148,8
2018-10-10 15:30;144,7
2018-10-10 15:45;143,05
2018-10-10 16:00;141,5
2018-10-10 16:15;133
2018-10-10 16:30;130,5
2018-10-10 16:45;130,5
2018-10-10 17:00;124,3
2018-10-10 17:15;118,45
2018-10-10 17:30;121,8
2018-10-10 17:45;125,95
2018-10-10 18:00;122,4
2018-10-10 18:15;117,05
2018-10-10 18:30;108,65
2018-10-10 18:45;114,3
2018-10-10 19:00;115,15
2018-10-10 19:15;115,15
2018-10-10 19:30;115,8
2018-10-10 19:45;114,6
2018-10-10 20:00;113,45
2018-10-10 20:15;105,55
2018-10-10 20:30;103,95
2018-10-10 20:45;103
2018-10-10 21:00;99,2
2018-10-10 21:15;96,25
2018-10-10 21:30;95,5
2018-10-10 21:45;90,45
2018-10-10 22:00;88,55
2018-10-10 22:15;92,35
2018-10-10 22:30;90,15
2018-10-10 22:45;89,75
2018-10-10 23:00;89,45
2018-10-10 23:15;88,1
2018-10-10 23:30;88,95
2018-10-10 23:45;88,65
2018-10-11 00:00;85,5
2018-10-11 00:15;81,95
2018-10-11 00:30;79,15
2018-10-11 00:45;78
2018-10-11 01:00;78,1
2018-10-11 01:15;76,35
2018-10-11 01:30;76,65
2018-10-11 01:45;76,7
2018-10-11 02:00;79,4
2018-10-11 02:15;77,55
2018-10-11 02:30;78,65
2018-10-11 02:45;77,35
2018-10-11 03:00;76,5
2018-10-11 03:15;78,5
2018-10-11 03:30;77,65
2018-10-11 03:45;79,05
2018-10-11 04:00;78,35
2018-10-11 04:15;78,6
2018-10-11 04:30;78,5
2018-10-11 04:45;79,1
2018-10-11 05:00;80
2018-10-11 05:15;79,25
2018-10-11 05:30;79,5
2018-10-11 05:45;81,4
2018-10-11 06:00;77,5
2018-10-11 06:15;74,8
2018-10-11 06:30;76,6
2018-10-11 06:45;77,4
2018-10-11 07:00;78,2
2018-10-11 07:15;78,35
2018-10-11 07:30;122,2
2018-10-11 07:45;92,8
2018-10-11 08:00;92
2018-10-11 08:15;92,9
2018-10-11 08:30;96,7
2018-10-11 08:45;105,95
2018-10-11 09:00;110,05
2018-10-11 09:15;113,6
2018-10-11 09:30;118,9
2018-10-11 09:45;121,15
2018-10-11 10:00;133,45
2018-10-11 10:15;127,1
2018-10-11 10:30;140,65
2018-10-11 10:45;148,85
2018-10-11 11:00;142,2
2018-10-11 11:15;147
2018-10-11 11:30;155,3
2018-10-11 11:45;152,6
2018-10-11 12:00;156,95
2018-10-11 12:15;148,6
2018-10-11 12:30;149,9
2018-10-11 12:45;149,4
2018-10-11 13:00;150,35
2018-10-11 13:15;154,6
2018-10-11 13:30;162,25
2018-10-11 13:45;158,25
2018-10-11 14:00;156,2
2018-10-11 14:15;148,5
2018-10-11 14:30;156
2018-10-11 14:45;154,95
2018-10-11 15:00;148,45
2018-10-11 15:15;148,5
2018-10-11 15:30;137,6
2018-10-11 15:45;142,1
2018-10-11 16:00;142,3
2018-10-11 16:15;134,9
2018-10-11 16:30;131,75
2018-10-11 16:45;131,45
2018-10-11 17:00;123,15
2018-10-11 17:15;128,95
2018-10-11 17:30;124,1
2018-10-11 17:45;125,2
2018-10-11 18:00;116,6
2018-10-11 18:15;110,8
2018-10-11 18:30;112,8
2018-10-11 18:45;113,65
2018-10-11 19:00;116,15
2018-10-11 19:15;111,3
2018-10-11 19:30;112,2
2018-10-11 19:45;108,8
2018-10-11 20:00;109
2018-10-11 20:15;100,6
2018-10-11 20:30;102,15
2018-10-11 20:45;101
2018-10-11 21:00;99,65
2018-10-11 21:15;96,5
2018-10-11 21:30;93,5
2018-10-11 21:45;93,7
2018-10-11 22:00;90,25
2018-10-11 22:15;89,25
2018-10-11 22:30;88,25
2018-10-11 22:45;91,8
2018-10-11 23:00;92,95
2018-10-11 23:15;89,6
2018-10-11 23:30;86,2
2018-10-11 23:45;88,6
2018-10-12 00:00;80,6
2018-10-12 00:15;79,2
2018-10-12 00:30;77,9
2018-10-12 00:45;79,55
2018-10-12 01:00;78,3
2018-10-12 01:15;79
2018-10-12 01:30;78,5
2018-10-12 01:45;79,8
2018-10-12 02:00;78,55
2018-10-12 02:15;79,25
2018-10-12 02:30;80
2018-10-12 02:45;78,95
2018-10-12 03:00;78,1
2018-10-12 03:15;78,6
2018-10-12 03:30;79,05
2018-10-12 03:45;79,2
2018-10-12 04:00;79,75
2018-10-12 04:15;79,9
2018-10-12 04:30;80,7
2018-10-12 04:45;79,95
2018-10-12 05:00;81,8
2018-10-12 05:15;81,95
2018-10-12 05:30;81,25
2018-10-12 05:45;81,7
2018-10-12 06:00;80,65
2018-10-12 06:15;78,4
2018-10-12 06:30;76,4
2018-10-12 06:45;76,3
2018-10-12 07:00;81,5
2018-10-12 07:15;80,5
2018-10-12 07:30;126,6
2018-10-12 07:45;92,25
2018-10-12 08:00;94,05
2018-10-12 08:15;100,5
2018-10-12 08:30;104,35
2018-10-12 08:45;109,45
2018-10-12 09:00;116,45
2018-10-12 09:15;117,1
2018-10-12 09:30;120,65
2018-10-12 09:45;117,8
2018-10-12 10:00;128,7
2018-10-12 10:15;136,45
2018-10-12 10:30;136,55
2018-10-12 10:45;142,4
2018-10-12 11:00;143,15
2018-10-12 11:15;149,15
2018-10-12 11:30;145,15
2018-10-12 11:45;137,2
2018-10-12 12:00;136
2018-10-12 12:15;144,65
2018-10-12 12:30;145,85
2018-10-12 12:45;139,25
2018-10-12 13:00;139,95
2018-10-12 13:15;143,35
2018-10-12 13:30;145,6
2018-10-12 13:45;141,85
2018-10-12 14:00;141,95
2018-10-12 14:15;144,55
2018-10-12 14:30;142,5
2018-10-12 14:45;139,4
2018-10-12 15:00;137,05
2018-10-12 15:15;133,05
2018-10-12 15:30;128,9
2018-10-12 15:45;127,2
2018-10-12 16:00;124,15
2018-10-12 16:15;122,85
2018-10-12 16:30;118,05
2018-10-12 16:45;115,3
2018-10-12 17:00;113,2
2018-10-12 17:15;111,9
2018-10-12 17:30;108,65
2018-10-12 17:45;106,95
2018-10-12 18:00;109,45
2018-10-12 18:15;103,85
2018-10-12 18:30;103,2
2018-10-12 18:45;104,2
2018-10-12 19:00;102,15
2018-10-12 19:15;105,4
2018-10-12 19:30;105,2
2018-10-12 19:45;108,9
2018-10-12 20:00;106,25
2018-10-12 20:15;101,45
2018-10-12 20:30;97,2
2018-10-12 20:45;100,85
2018-10-12 21:00;98,6
2018-10-12 21:15;98,55
2018-10-12 21:30;100,35
2018-10-12 21:45;98,95
2018-10-12 22:00;98,25
2018-10-12 22:15;92,35
2018-10-12 22:30;91,95
2018-10-12 22:45;85,85
2018-10-12 23:00;81,3
2018-10-12 23:15;79,6
2018-10-12 23:30;79,5
2018-10-12 23:45;81,3
2018-10-13 00:00;79,9
2018-10-13 00:15;78,8
2018-10-13 00:30;79,75
2018-10-13 00:45;78,3
2018-10-13 01:00;78,3
2018-10-13 01:15;79,45
2018-10-13 01:30;76,65
2018-10-13 01:45;77,85
2018-10-13 02:00;77,25
2018-10-13 02:15;79,3
2018-10-13 02:30;78,5
2018-10-13 02:45;77,35
2018-10-13 03:00;77,05
2018-10-13 03:15;77,3
2018-10-13 03:30;76,45
2018-10-13 03:45;76,3
2018-10-13 04:00;74,7
2018-10-13 04:15;76,3
2018-10-13 04:30;75,7
2018-10-13 04:45;77,2
2018-10-13 05:00;80,85
2018-10-13 05:15;80,85
2018-10-13 05:30;80,35
2018-10-13 05:45;77,05
2018-10-13 06:00;77,95
2018-10-13 06:15;76,3
2018-10-13 06:30;75,15
2018-10-13 06:45;74,6
2018-10-13 07:00;74
2018-10-13 07:15;77,45
2018-10-13 07:30;74,75
2018-10-13 07:45;72,65
2018-10-13 08:00;73,5
2018-10-13 08:15;72,55
2018-10-13 08:30;73,85
2018-10-13 08:45;74,7
2018-10-13 09:00;75,4
2018-10-13 09:15;76,8
2018-10-13 09:30;78,4
2018-10-13 09:45;77,55
2018-10-13 10:00;78,05
2018-10-13 10:15;75,7
2018-10-13 10:30;73,6
2018-10-13 10:45;80,25
2018-10-13 11:00;78,95
2018-10-13 11:15;85,8
2018-10-13 11:30;86,5
2018-10-13 11:45;86,8
2018-10-13 12:00;90,3
2018-10-13 12:15;98,25
2018-10-13 12:30;97,45
2018-10-13 12:45;95,45
2018-10-13 13:00;94,7
2018-10-13 13:15;93,55
2018-10-13 13:30;94,6
2018-10-13 13:45;90,7
2018-10-13 14:00;92,1
2018-10-13 14:15;92,05
2018-10-13 14:30;94,35
2018-10-13 14:45;91,2
2018-10-13 15:00;92,5
2018-10-13 15:15;92,35
2018-10-13 15:30;88,9
2018-10-13 15:45;92,85
2018-10-13 16:00;89,45
2018-10-13 16:15;91,5
2018-10-13 16:30;88,25
2018-10-13 16:45;89,3
2018-10-13 17:00;89,4
2018-10-13 17:15;90,55
2018-10-13 17:30;89,45
2018-10-13 17:45;88,75
2018-10-13 18:00;97,3
2018-10-13 18:15;97,1
2018-10-13 18:30;92,15
2018-10-13 18:45;91,35
2018-10-13 19:00;92,25
2018-10-13 19:15;94,45
2018-10-13 19:30;91,25
2018-10-13 19:45;93,85
2018-10-13 20:00;90,75
2018-10-13 20:15;89,75
2018-10-13 20:30;89,15
2018-10-13 20:45;90,55
2018-10-13 21:00;87,4
2018-10-13 21:15;88,95
2018-10-13 21:30;89,15
2018-10-13 21:45;89,8
2018-10-13 22:00;85,65
2018-10-13 22:15;82,9
2018-10-13 22:30;85,2
2018-10-13 22:45;81
2018-10-13 23:00;81,9
2018-10-13 23:15;79,85
2018-10-13 23:30;79,25
2018-10-13 23:45;79,05
2018-10-14 00:00;76,7
2018-10-14 00:15;75,4
2018-10-14 00:30;76,25
2018-10-14 00:45;79,2
2018-10-14 01:00;80,6
2018-10-14 01:15;79,85
2018-10-14 01:30;80,5
2018-10-14 01:45;78,7
2018-10-14 02:00;79
2018-10-14 02:15;79,1
2018-10-14 02:30;77,6
2018-10-14 02:45;78,75
2018-10-14 03:00;77,5
2018-10-14 03:15;79,1
2018-10-14 03:30;80,7
2018-10-14 03:45;79,35
2018-10-14 04:00;78,7
2018-10-14 04:15;79,4
2018-10-14 04:30;80,15
2018-10-14 04:45;78,65
2018-10-14 05:00;80,25
2018-10-14 05:15;80,85
2018-10-14 05:30;79,4
2018-10-14 05:45;80,25
2018-10-14 06:00;80,75
2018-10-14 06:15;77,35
2018-10-14 06:30;80,8
2018-10-14 06:45;82,15
2018-10-14 07:00;83,55
2018-10-14 07:15;84
2018-10-14 07:30;81,3
2018-10-14 07:45;82,9
2018-10-14 08:00;81
2018-10-14 08:15;76,6
2018-10-14 08:30;75,4
2018-10-14 08:45;76,95
2018-10-14 09:00;75,65
2018-10-14 09:15;76,5
2018-10-14 09:30;73,9
2018-10-14 09:45;73,85
2018-10-14 10:00;73,95
2018-10-14 10:15;74,8
2018-10-14 10:30;78,5
2018-10-14 10:45;73,05
2018-10-14 11:00;74,65
2018-10-14 11:15;75,8
2018-10-14 11:30;78,8
2018-10-14 11:45;75
2018-10-14 12:00;72,25
2018-10-14 12:15;74,5
2018-10-14 12:30;72
2018-10-14 12:45;74,3
2018-10-14 13:00;77,55
2018-10-14 13:15;78,5
2018-10-14 13:30;77
2018-10-14 13:45;81,05
2018-10-14 14:00;76,95
2018-10-14 14:15;77,1
2018-10-14 14:30;78,8
2018-10-14 14:45;76,55
2018-10-14 15:00;83,65
2018-10-14 15:15;78,5
2018-10-14 15:30;76,7
2018-10-14 15:45;79,5
2018-10-14 16:00;77
2018-10-14 16:15;75,2
2018-10-14 16:30;76,7
2018-10-14 16:45;77,7
2018-10-14 17:00;78,35
2018-10-14 17:15;77,4
2018-10-14 17:30;85,75
2018-10-14 17:45;84,7
2018-10-14 18:00;87,45
2018-10-14 18:15;86,75
2018-10-14 18:30;88,1
2018-10-14 18:45;92,2
2018-10-14 19:00;91,7
2018-10-14 19:15;91,2
2018-10-14 19:30;91
2018-10-14 19:45;89,15
2018-10-14 20:00;88,5
2018-10-14 20:15;88,45
2018-10-14 20:30;90,4
2018-10-14 20:45;88,5
2018-10-14 21:00;85,2
2018-10-14 21:15;88
2018-10-14 21:30;88
2018-10-14 21:45;86,3
2018-10-14 22:00;82,45
2018-10-14 22:15;79,75
2018-10-14 22:30;76,95
2018-10-14 22:45;76,75
2018-10-14 23:00;77,55
2018-10-14 23:15;76,6
2018-10-14 23:30;75,25
2018-10-14 23:45;77,25

